• Em Portugal
  • Lista de países
  • Para 7 dias
  • Temperatura da água
  • Mapas de satélite
  • Mapa do tempo
  • Widgets de tempo
  • user-avatar
    Iniciar Sessão

    Previsão horária em Al-Chums

    Hoje, 21 Maio, Segunda-feira

    Tempo Temperatura Precipitação Vento Pressão Humidade
    00:00 +27°C° 0 mm 2 m/s 716 mmHg 33%
    01:00 +26°C° 0 mm 2 m/s 716 mmHg 34%
    02:00 +26°C° 0 mm 2 m/s 716 mmHg 33%
    03:00 +25°C° 0 mm 2 m/s 716 mmHg 35%
    04:00 +25°C° 0 mm 2 m/s 716 mmHg 37%
    05:00 +25°C° 0 mm 1 m/s 716 mmHg 38%
    06:00 +26°C° 0 mm 2 m/s 717 mmHg 34%
    07:00 +28°C° 0 mm 3 m/s 717 mmHg 30%
    08:00 +30°C° 0 mm 4 m/s 718 mmHg 27%
    09:00 +32°C° 0 mm 4 m/s 718 mmHg 25%
    10:00 +33°C° 0 mm 5 m/s 718 mmHg 22%
    11:00 +35°C° 0 mm 5 m/s 718 mmHg 20%
    12:00 +35°C° 0 mm 6 m/s 718 mmHg 20%
    13:00 +35°C° 0 mm 6 m/s 718 mmHg 20%
    14:00 +35°C° 0 mm 6 m/s 717 mmHg 20%
    15:00 +34°C° 0 mm 6 m/s 717 mmHg 21%
    16:00 +34°C° 0 mm 6 m/s 717 mmHg 22%
    17:00 +33°C° 0 mm 6 m/s 717 mmHg 22%
    18:00 +32°C° 0 mm 5 m/s 717 mmHg 24%
    19:00 +29°C° 0 mm 4 m/s 717 mmHg 26%
    20:00 +28°C° 0 mm 3 m/s 717 mmHg 28%
    21:00 +27°C° 0 mm 3 m/s 717 mmHg 28%
    22:00 +27°C° 0 mm 3 m/s 717 mmHg 29%
    23:00 +26°C° 0 mm 2 m/s 718 mmHg 29%

    Amanhã, 22 Maio, Terça-feira

    Tempo Temperatura Precipitação Vento Pressão Humidade
    00:00 +26°C° 0 mm 2 m/s 718 mmHg 29%
    01:00 +26°C° 0 mm 2 m/s 718 mmHg 30%
    02:00 +25°C° 0 mm 2 m/s 717 mmHg 30%
    03:00 +25°C° 0 mm 2 m/s 718 mmHg 31%
    04:00 +25°C° 0 mm 2 m/s 718 mmHg 31%
    05:00 +25°C° 0 mm 2 m/s 718 mmHg 31%
    06:00 +26°C° 0 mm 3 m/s 718 mmHg 30%
    07:00 +27°C° 0 mm 4 m/s 719 mmHg 29%
    08:00 +28°C° 0 mm 5 m/s 719 mmHg 29%
    09:00 +30°C° 0 mm 5 m/s 719 mmHg 27%
    10:00 +32°C° 0 mm 5 m/s 719 mmHg 25%
    11:00 +33°C° 0 mm 6 m/s 719 mmHg 23%
    12:00 +34°C° 0 mm 6 m/s 719 mmHg 22%
    13:00 +34°C° 0 mm 7 m/s 719 mmHg 21%
    14:00 +34°C° 0 mm 8 m/s 719 mmHg 21%
    15:00 +34°C° 0 mm 7 m/s 718 mmHg 21%
    16:00 +34°C° 0 mm 7 m/s 718 mmHg 21%
    17:00 +34°C° 0 mm 7 m/s 718 mmHg 20%
    18:00 +32°C° 0 mm 5 m/s 718 mmHg 23%
    19:00 +29°C° 0 mm 4 m/s 717 mmHg 25%
    20:00 +28°C° 0 mm 2 m/s 717 mmHg 28%
    21:00 +27°C° 0 mm 2 m/s 717 mmHg 28%
    22:00 +26°C° 0 mm 2 m/s 717 mmHg 29%
    23:00 +26°C° 0 mm 1 m/s 717 mmHg 29%

    Depois de amanhã, 23 Maio, Quarta-feira

    Tempo Temperatura Precipitação Vento Pressão Humidade
    00:00 +25°C° 0 mm 1 m/s 716 mmHg 30%
    01:00 +25°C° 0 mm 1 m/s 716 mmHg 31%
    02:00 +24°C° 0 mm 1 m/s 716 mmHg 32%
    03:00 +24°C° 0 mm 1 m/s 716 mmHg 33%
    04:00 +24°C° 0 mm 1 m/s 716 mmHg 34%
    05:00 +24°C° 0 mm 1 m/s 716 mmHg 35%
    06:00 +26°C° 0 mm 1 m/s 716 mmHg 30%
    07:00 +28°C° 0 mm 1 m/s 716 mmHg 26%
    08:00 +30°C° 0 mm 2 m/s 717 mmHg 22%
    09:00 +31°C° 0 mm 3 m/s 717 mmHg 21%
    10:00 +33°C° 0 mm 4 m/s 717 mmHg 19%
    11:00 +34°C° 0 mm 4 m/s 717 mmHg 18%
    12:00 +34°C° 0 mm 5 m/s 716 mmHg 19%
    13:00 +34°C° 0 mm 6 m/s 716 mmHg 19%
    14:00 +34°C° 0 mm 7 m/s 716 mmHg 20%
    15:00 +33°C° 0 mm 7 m/s 715 mmHg 23%
    16:00 +32°C° 0 mm 7 m/s 715 mmHg 27%
    17:00 +30°C° 0 mm 7 m/s 715 mmHg 31%
    18:00 +28°C° 0 mm 7 m/s 715 mmHg 36%
    19:00 +27°C° 0 mm 6 m/s 715 mmHg 42%
    20:00 +25°C° 0 mm 5 m/s 715 mmHg 48%
    21:00 +25°C° 0 mm 5 m/s 715 mmHg 50%
    22:00 +23°C° 0 mm 5 m/s 715 mmHg 51%
    23:00 +23°C° 0 mm 4 m/s 715 mmHg 53%

    24 Maio, Quinta-feira

    Tempo Temperatura Precipitação Vento Pressão Humidade
    00:00 +22°C° 0 mm 4 m/s 715 mmHg 56%
    01:00 +22°C° 0 mm 3 m/s 715 mmHg 59%
    02:00 +22°C° 0 mm 3 m/s 714 mmHg 62%
    03:00 +21°C° 0 mm 3 m/s 714 mmHg 61%
    04:00 +21°C° 0 mm 2 m/s 714 mmHg 61%
    05:00 +21°C° 0 mm 2 m/s 714 mmHg 60%
    06:00 +24°C° 0 mm 3 m/s 715 mmHg 53%
    07:00 +26°C° 0 mm 3 m/s 715 mmHg 45%
    08:00 +28°C° 0 mm 4 m/s 715 mmHg 38%
    09:00 +29°C° 0 mm 4 m/s 715 mmHg 36%
    10:00 +30°C° 0 mm 5 m/s 715 mmHg 35%
    11:00 +32°C° 0 mm 6 m/s 715 mmHg 33%
    12:00 +32°C° 0 mm 6 m/s 715 mmHg 34%
    13:00 +32°C° 0 mm 7 m/s 714 mmHg 34%
    14:00 +32°C° 0 mm 7 m/s 714 mmHg 35%
    15:00 +30°C° 0 mm 7 m/s 714 mmHg 36%
    16:00 +29°C° 0 mm 7 m/s 713 mmHg 37%
    17:00 +29°C° 0 mm 7 m/s 713 mmHg 38%
    18:00 +27°C° 0 mm 6 m/s 713 mmHg 42%
    19:00 +26°C° 0 mm 5 m/s 713 mmHg 46%
    20:00 +25°C° 0 mm 5 m/s 713 mmHg 51%
    21:00 +23°C° 0 mm 4 m/s 713 mmHg 53%
    22:00 +23°C° 0 mm 4 m/s 713 mmHg 55%
    23:00 +22°C° 0 mm 4 m/s 713 mmHg 57%

    25 Maio, Sexta-feira

    Tempo Temperatura Precipitação Vento Pressão Humidade
    00:00 +22°C° 0 mm 3 m/s 713 mmHg 58%
    01:00 +22°C° 0 mm 3 m/s 713 mmHg 58%
    02:00 +21°C° 0 mm 2 m/s 712 mmHg 59%
    03:00 +21°C° 0 mm 2 m/s 712 mmHg 58%
    04:00 +21°C° 0 mm 2 m/s 712 mmHg 58%
    05:00 +21°C° 0 mm 2 m/s 712 mmHg 57%
    06:00 +24°C° 0 mm 2 m/s 713 mmHg 49%
    07:00 +26°C° 0 mm 3 m/s 713 mmHg 41%
    08:00 +27°C° 0 mm 4 m/s 713 mmHg 33%
    09:00 +29°C° 0 mm 4 m/s 713 mmHg 30%
    10:00 +30°C° 0 mm 4 m/s 713 mmHg 27%
    11:00 +32°C° 0 mm 5 m/s 713 mmHg 23%
    12:00 +33°C° 0 mm 5 m/s 713 mmHg 24%
    13:00 +33°C° 0 mm 6 m/s 713 mmHg 25%
    14:00 +33°C° 0 mm 7 m/s 712 mmHg 25%
    15:00 +32°C° 0 mm 7 m/s 712 mmHg 26%
    16:00 +30°C° 0 mm 7 m/s 712 mmHg 28%
    17:00 +29°C° 0 mm 7 m/s 712 mmHg 29%
    18:00 +28°C° 0 mm 5 m/s 712 mmHg 34%
    19:00 +27°C° 0 mm 4 m/s 712 mmHg 39%
    20:00 +25°C° 0 mm 3 m/s 712 mmHg 43%
    21:00 +25°C° 0 mm 2 m/s 712 mmHg 45%
    22:00 +24°C° 0 mm 1 m/s 712 mmHg 47%
    23:00 +24°C° 0 mm 1 m/s 712 mmHg 49%

    26 Maio, Sábado

    Tempo Temperatura Precipitação Vento Pressão Humidade
    00:00 +23°C° 0 mm 1 m/s 712 mmHg 49%
    01:00 +23°C° 0 mm 1 m/s 712 mmHg 50%
    02:00 +23°C° 0 mm 1 m/s 711 mmHg 50%
    03:00 +23°C° 0 mm 1 m/s 712 mmHg 51%
    04:00 +23°C° 0 mm 1 m/s 712 mmHg 51%
    05:00 +20°C° 0 mm 0 m/s 712 mmHg 52%
    06:00 +24°C° 0,2 mm 1 m/s 712 mmHg 47%
    07:00 +26°C° 0,2 mm 1 m/s 713 mmHg 43%
    08:00 +27°C° 0,2 mm 1 m/s 713 mmHg 38%
    09:00 +29°C° 0 mm 2 m/s 713 mmHg 34%
    10:00 +30°C° 0 mm 2 m/s 713 mmHg 31%
    11:00 +33°C° 0 mm 3 m/s 713 mmHg 27%
    12:00 +33°C° 0 mm 3 m/s 713 mmHg 28%
    13:00 +33°C° 0 mm 4 m/s 713 mmHg 28%
    14:00 +33°C° 0 mm 4 m/s 712 mmHg 29%
    15:00 +32°C° 0 mm 5 m/s 712 mmHg 33%
    16:00 +30°C° 0 mm 6 m/s 712 mmHg 38%
    17:00 +29°C° 0 mm 6 m/s 712 mmHg 42%
    18:00 +27°C° 0,1 mm 5 m/s 712 mmHg 48%
    19:00 +26°C° 0,1 mm 4 m/s 712 mmHg 53%
    20:00 +24°C° 0,1 mm 3 m/s 713 mmHg 59%
    21:00 +24°C° 0 mm 3 m/s 713 mmHg 61%
    22:00 +22°C° 0 mm 3 m/s 713 mmHg 64%
    23:00 +21°C° 0 mm 2 m/s 713 mmHg 67%
    Mostrar mais